Theta_e
316 317 316 316 316 316 314 313 313 313 313 313 313 313 313 314 316 320 321 327 333 333 333 330 333 335 334 334 341 342 343 344 347 350 350 353 350 349 348 355 354 352 350 348 351
316 316 316 316 317 316 315 312 313 313 313 313 313 313 314 314 318 321 324 326 327 328 328 329 329 328 327 328 338 340 338 339 342 346 346 350 348 348 356 355 355 352 349 350 349
315 316 316 316 316 317 315 312 312 313 313 313 313 313 314 315 319 320 328 328 326 325 326 329 329 328 331 328 331 339 341 339 342 345 346 346 346 349 354 356 354 353 351 349 348
316 315 315 315 315 316 315 312 312 313 313 313 313 313 314 322 321 327 326 329 331 333 332 330 329 333 333 333 330 339 339 340 345 348 346 345 345 354 353 352 351 349 349 348 349
315 315 315 315 316 316 314 312 312 313 313 313 313 313 316 320 322 324 326 325 329 330 331 331 334 333 334 332 330 332 336 338 345 346 344 346 347 348 351 353 350 349 350 349 348
315 315 315 315 315 315 314 311 312 313 313 313 313 314 323 322 323 325 327 326 325 328 331 331 334 332 333 331 331 332 336 337 345 347 346 347 345 347 352 352 352 350 351 351 350
315 315 315 316 315 315 313 311 312 313 313 313 313 316 322 318 322 323 324 325 325 326 328 330 332 332 331 330 330 331 336 334 344 346 347 344 345 346 352 353 354 352 350 349 349
316 315 316 315 314 315 312 311 312 312 312 313 313 317 311 319 321 322 325 326 326 327 327 330 330 329 329 328 329 331 332 335 334 345 344 343 344 344 350 353 356 354 352 351 349
315 315 315 315 314 314 311 311 312 312 312 313 317 316 314 322 323 324 325 324 326 328 329 330 328 327 327 329 328 329 332 335 334 342 346 342 342 338 351 350 353 354 353 352 350
315 315 315 314 314 313 311 312 312 313 316 316 319 322 318 321 323 324 325 326 324 327 329 327 324 327 324 326 332 333 332 332 335 335 346 344 336 353 352 351 351 350 349 351 351
315 315 314 314 314 312 312 314 306 307 317 308 310 320 322 322 322 323 325 324 325 326 330 326 328 330 329 329 329 330 329 330 330 334 340 344 337 332 353 352 351 350 349 347 347
314 314 314 313 314 312 311 310 309 315 314 313 314 316 317 319 321 322 324 325 328 330 328 328 330 328 328 328 329 328 326 326 328 329 328 325 332 339 352 353 351 351 349 348 346
314 314 314 314 313 311 311 313 316 316 312 317 315 315 316 317 320 320 322 323 328 330 329 330 330 329 330 330 330 325 326 327 328 325 326 327 331 337 339 342 345 349 347 346 346
314 314 314 315 311 312 313 317 319 314 317 319 319 318 315 318 320 319 321 323 327 328 328 330 329 331 329 328 327 326 325 327 326 324 326 325 327 336 336 340 346 343 348 346 345
314 314 313 315 311 314 316 317 313 314 317 317 318 317 316 318 320 320 321 323 325 328 328 330 329 327 325 327 323 324 327 326 326 323 324 326 331 335 336 341 349 349 347 347 346
314 313 312 313 313 316 316 317 314 320 329 326 319 318 319 318 319 319 320 320 322 324 324 326 323 324 324 325 324 324 324 322 324 321 324 328 334 341 341 340 342 347 347 348 345
314 315 311 313 311 315 316 313 318 325 324 321 320 318 318 317 319 320 319 321 324 325 326 323 325 324 325 325 323 322 321 324 327 333 333 332 337 335 337 337 339 343 346 346 346
316 317 317 315 315 317 317 319 326 324 324 323 316 316 318 316 318 318 317 318 319 320 319 323 328 325 324 324 325 323 322 322 328 326 326 335 341 339 339 345 343 343 350 352 348
316 317 315 317 315 315 316 321 320 324 326 329 317 318 318 318 319 320 317 316 317 319 323 323 323 320 322 322 323 322 322 320 324 332 337 337 338 336 343 343 346 353 353 352 350
317 316 320 317 316 315 319 323 326 324 327 327 318 317 317 318 319 317 317 318 320 319 319 321 324 320 323 322 322 322 319 324 323 339 343 341 343 340 345 345 346 351 353 352 346
318 319 319 316 316 314 324 325 327 325 325 323 327 318 317 317 317 318 318 321 319 319 320 316 319 323 328 330 325 325 328 322 324 330 337 339 339 334 340 343 345 351 353 350 345
311 324 318 313 314 312 319 323 323 323 322 322 321 318 316 316 317 319 320 319 319 317 321 317 315 320 329 323 326 329 330 326 330 334 334 333 336 333 335 340 341 348 345 341 343
313 316 316 313 319 317 318 323 324 323 321 324 323 319 317 316 320 318 318 318 318 319 320 319 320 324 328 328 328 334 333 325 323 325 334 338 334 332 336 339 340 342 342 341 342
315 320 312 309 309 316 321 323 323 322 322 323 324 322 323 319 316 318 320 329 320 321 340 325 317 322 327 328 329 336 335 329 329 332 331 332 334 335 338 346 345 345 344 346 345
315 326 316 314 315 319 322 320 322 323 321 323 322 325 326 326 328 326 327 329 328 340 322 321 326 329 330 334 330 331 332 334 335 332 334 333 338 336 335 337 347 349 348 347 346
324 326 323 326 328 333 323 322 323 323 322 324 323 331 327 327 325 328 327 327 329 327 326 322 328 327 328 328 331 335 334 333 334 333 335 336 340 334 330 329 330 331 329 328 326
314 319 323 326 332 325 323 326 332 331 331 324 325 329 331 331 326 325 324 323 326 327 325 322 322 324 331 326 329 329 335 335 334 332 335 340 336 327 327 327 325 325 326 327 327
Wind_Speed
15 16 16 17 16 15 13 11 11 12 13 14 16 16 19 23 23 10 5 10 2 8 3 8 7 8 1 1 3 3 3 1 3 4 3 5 3 3 4 8 2 3 5 12 26
16 17 17 17 17 16 13 11 11 11 12 12 15 16 18 22 21 7 11 14 13 12 7 5 4 1 2 1 2 3 3 7 6 4 4 6 4 7 4 5 4 10 16 27 26
17 18 18 17 17 16 14 11 10 10 11 11 13 14 17 16 6 4 12 1 9 13 14 9 4 3 2 3 3 4 5 5 3 4 4 6 4 1 8 2 5 12 16 19 22
17 18 18 18 17 16 14 11 9 9 9 10 12 14 14 4 3 4 10 9 6 5 8 7 4 3 3 3 4 3 8 5 3 7 4 8 6 3 2 2 12 18 21 16 16
17 18 18 18 18 16 14 10 8 8 8 9 10 13 5 2 8 2 3 9 5 4 5 2 1 2 1 4 4 4 5 3 0 9 6 5 4 3 2 9 16 15 16 17 16
18 18 19 18 18 16 13 9 7 6 6 7 8 9 2 3 3 1 9 11 4 2 3 3 1 4 3 4 2 2 5 0 4 7 5 3 2 2 3 14 15 18 16 14 16
19 19 19 19 18 16 12 7 5 5 5 6 6 5 1 14 2 18 19 12 9 3 1 4 4 0 2 6 4 4 5 1 3 6 4 7 0 5 5 13 16 14 15 14 12
19 20 19 19 18 15 10 5 4 4 3 4 4 2 7 8 18 18 13 10 6 2 4 6 7 4 3 3 7 2 5 2 3 8 2 5 8 6 11 13 12 14 13 13 16
20 20 20 19 18 13 6 3 2 2 2 2 2 2 9 13 8 5 6 5 7 1 1 3 3 3 5 4 4 7 2 2 6 8 6 3 7 5 11 12 10 12 13 12 12
21 21 21 20 17 10 3 2 2 1 2 1 1 3 7 2 6 6 4 3 1 2 5 7 5 4 4 6 1 5 4 4 5 7 3 6 8 3 9 13 14 11 11 12 13
21 21 21 20 15 6 2 2 4 3 3 7 5 3 4 14 4 2 2 4 2 8 3 3 5 1 7 5 5 5 3 6 6 5 5 7 5 5 11 10 9 10 9 9 13
22 22 21 20 13 4 1 2 4 2 6 10 5 6 8 1 4 3 4 3 2 4 1 6 3 6 4 4 5 5 2 4 2 4 5 5 3 1 6 10 9 10 10 10 7
23 23 21 19 8 1 3 6 4 5 1 6 5 5 5 9 6 6 6 5 3 3 3 4 5 4 2 0 4 3 2 2 3 2 4 6 6 7 4 3 6 8 6 7 9
26 25 21 13 2 1 4 1 8 7 4 4 4 6 5 5 4 6 5 7 1 6 5 3 3 3 4 4 5 1 6 3 5 4 3 4 3 4 5 8 5 6 10 9 10
28 23 18 8 2 3 3 8 7 3 2 2 3 3 2 7 2 2 4 4 9 6 6 6 2 3 5 3 5 8 2 3 3 5 3 8 5 6 5 6 4 6 5 3 5
33 23 14 6 9 4 3 5 3 5 4 1 5 6 5 2 1 2 3 5 4 4 1 6 3 4 7 1 4 3 4 7 5 4 3 4 4 5 4 4 5 3 5 5 8
34 22 10 9 3 7 2 3 5 3 4 4 4 4 4 4 1 2 4 3 5 5 2 5 5 3 3 1 1 4 7 4 4 5 4 1 2 6 6 4 3 6 6 5 7
26 13 7 16 13 3 4 4 2 4 5 3 4 3 6 5 4 3 5 4 2 6 3 3 4 4 3 6 7 2 7 6 4 3 4 2 1 4 5 5 4 3 5 6 9
18 4 4 4 15 8 4 3 6 5 4 4 3 6 4 4 4 3 7 9 9 7 7 4 5 5 2 3 6 3 2 4 8 3 2 2 3 6 5 6 4 5 5 10 14
11 3 4 4 22 4 4 5 4 5 5 2 5 4 6 4 5 6 9 6 6 9 5 3 2 1 4 2 6 3 6 4 4 4 3 5 4 5 6 8 6 7 9 7 9
3 2 8 7 15 4 4 6 5 7 4 4 2 4 4 7 8 6 9 1 8 5 6 5 3 7 3 5 1 2 3 7 6 3 5 2 6 5 8 8 10 9 6 4 6
5 2 4 9 3 1 3 5 3 5 1 7 4 8 7 8 6 5 8 7 6 10 10 5 5 0 1 6 3 3 4 4 5 3 2 2 5 3 7 7 1 6 5 5 6
2 1 6 4 3 2 4 5 5 4 5 3 4 7 5 7 3 5 6 5 8 8 10 8 1 3 7 7 4 6 3 4 6 3 5 5 5 6 6 2 4 6 1 2 3
1 2 3 3 1 5 2 5 4 4 7 7 6 5 4 4 3 4 7 2 9 7 10 9 4 6 7 6 4 3 2 3 4 4 5 5 3 5 7 4 1 4 6 5 7
0 1 2 4 4 4 1 4 5 5 4 4 3 7 7 5 3 5 3 4 5 6 5 5 4 3 4 5 6 3 2 2 2 1 4 5 5 3 4 3 4 5 7 9 9
2 2 4 1 2 3 4 4 6 4 5 6 4 2 5 8 9 9 9 4 6 3 4 2 3 3 5 8 8 6 5 4 5 3 5 7 5 2 3 8 11 9 11 11 8
5 3 1 3 2 2 4 4 5 2 8 10 5 4 6 2 6 5 7 6 6 7 4 4 5 3 1 3 4 3 4 2 3 3 2 4 4 2 6 10 6 7 8 8 8
Wind_Direction
341 339 336 332 328 323 314 302 298 304 310 320 323 323 326 323 320 311 219 247 222 231 187 329 309 272 215 217 237 116 58 241 246 158 205 170 140 126 110 134 92 102 124 140 149
339 338 336 332 330 325 318 304 296 301 309 318 321 323 328 326 322 280 280 253 254 250 255 244 284 134 337 205 222 111 136 217 209 179 185 178 143 163 107 132 59 78 104 130 146
338 336 335 332 330 327 318 305 291 295 305 315 319 324 326 331 333 252 30 147 218 244 246 244 229 160 255 131 206 180 218 186 248 174 143 142 144 97 117 248 164 152 141 148 152
337 336 334 332 329 326 318 303 288 291 304 315 322 325 325 341 219 123 25 66 87 137 182 201 166 180 192 222 214 167 255 176 242 140 115 162 117 110 155 213 143 156 150 154 164
336 336 334 331 329 326 316 301 286 289 304 317 325 332 342 28 252 253 81 34 83 136 210 197 350 111 196 241 287 175 290 171 130 123 152 120 84 126 114 107 130 137 151 170 178
337 335 333 331 329 324 315 295 279 285 302 318 329 336 4 277 235 309 319 347 9 194 178 166 258 224 253 231 187 265 191 95 137 146 124 92 66 31 119 129 140 152 168 183 189
338 335 333 332 328 323 311 289 275 280 300 317 333 354 319 236 160 304 308 308 317 276 133 217 214 144 354 319 319 326 107 17 163 175 142 134 136 228 139 144 154 173 174 187 207
338 336 334 332 327 322 310 284 269 277 294 312 326 3 251 277 297 294 300 302 310 308 223 268 225 191 155 275 1 98 58 129 245 135 228 116 265 218 155 151 170 180 182 190 205
338 337 335 333 328 323 312 267 243 249 256 300 27 88 268 305 288 310 272 260 316 244 291 135 108 67 19 43 22 9 112 214 297 182 133 139 257 218 166 165 181 191 192 194 211
339 337 336 334 329 326 302 214 172 198 162 106 284 357 273 306 324 326 282 257 328 313 43 41 49 60 40 52 354 296 335 294 218 195 166 170 253 156 184 181 189 198 199 198 210
339 337 337 333 329 324 133 128 31 350 222 194 202 245 320 325 314 193 176 148 92 57 81 4 51 286 249 190 203 252 191 224 266 201 131 190 255 250 194 199 201 204 209 208 216
338 337 336 332 326 312 167 140 190 279 305 226 232 270 277 327 313 267 170 103 77 130 122 19 291 241 218 177 201 233 275 290 296 102 101 174 207 303 200 226 222 207 214 222 234
340 335 333 332 328 100 209 237 279 341 121 291 188 204 217 151 220 253 131 134 136 102 107 155 236 316 286 204 348 339 202 283 109 69 66 109 347 346 3 191 216 215 215 209 226
339 335 331 343 297 218 242 124 304 172 54 257 232 266 155 165 277 212 197 140 73 158 144 258 299 274 22 325 135 266 199 153 107 77 205 39 228 301 317 289 258 250 217 204 214
338 330 325 320 274 217 160 330 114 112 52 188 179 158 153 155 166 216 193 70 146 148 112 239 241 359 349 202 167 231 136 77 59 80 76 357 83 269 347 304 337 338 292 170 104
337 324 313 273 227 206 238 326 140 42 258 220 144 155 129 356 14 88 83 54 132 115 38 225 263 217 208 65 178 124 86 46 56 76 40 284 119 300 270 274 318 14 42 77 82
334 316 259 207 220 158 332 105 46 146 326 191 175 155 132 149 187 102 112 97 136 107 5 320 261 290 165 207 75 78 56 358 13 17 214 133 64 226 269 268 239 306 42 73 86
334 324 242 209 201 175 110 59 163 251 247 281 134 96 151 161 199 113 102 161 42 93 121 140 334 194 181 193 182 100 147 152 175 200 262 287 222 251 255 318 300 9 126 135 121
336 320 251 227 189 169 86 88 217 215 271 339 79 107 198 201 159 124 166 186 193 163 164 138 277 287 205 177 129 178 131 161 105 356 49 285 281 318 324 302 318 253 245 184 164
330 289 260 227 180 134 87 232 245 216 325 358 184 160 169 189 144 158 182 189 186 194 137 176 348 297 275 123 40 131 151 75 17 133 220 302 280 239 228 246 245 247 233 280 60
339 54 347 163 145 60 164 234 276 256 226 6 296 163 176 175 180 192 191 215 182 146 129 142 119 287 32 20 214 55 54 55 111 104 154 180 268 223 228 209 216 237 217 233 75
338 74 357 139 64 29 172 208 265 284 190 252 209 197 187 170 163 189 182 214 164 146 164 192 139 192 232 299 273 103 118 118 118 215 51 139 271 346 268 212 118 280 317 349 58
21 265 153 327 142 263 283 275 239 267 258 249 257 206 178 174 165 181 182 199 154 153 166 179 225 59 353 347 356 57 49 97 108 103 186 140 261 9 357 203 197 191 240 17 61
346 85 341 40 120 144 235 256 260 269 256 213 247 151 121 171 269 193 210 136 171 173 101 94 99 160 182 195 147 99 79 117 105 114 168 222 285 349 347 345 62 36 42 26 28
182 251 197 218 264 179 281 295 303 314 263 248 263 220 165 132 106 169 185 68 53 170 79 108 116 105 58 84 80 80 4 52 9 184 152 194 145 343 328 345 70 88 68 57 44
17 19 350 254 313 132 165 266 213 241 228 270 216 305 190 157 176 183 134 142 181 52 93 40 145 130 53 50 93 72 32 47 55 89 68 113 65 317 36 79 65 54 70 63 52
349 325 105 297 315 114 212 241 239 21 258 238 298 322 81 322 127 82 68 94 117 124 110 77 124 86 157 22 56 24 334 8 50 19 164 148 160 185 55 63 50 58 61 62 47